DECAYED

STARLINK-1752, 46338 (Decayed)

Orbit data source: Space-Track

STARLINK-1752, 46338 was a payload satellite owned by SpaceX/Seattle (US) in LEO that was launched on Thu, 03 Sep 2020 UTC via an FALCON 9 launch vehicle from the Air Force Eastern Test Range (AFETR). Payload-class satellites include a variety of spacecraft equipped with specific instruments for various scientific and technological missions. These include communications satellites like Starlink; space stations such as the ISS; scientific satellites like the Hubble; Earth observation satellites from companies like Planet Labs, Umbra, and HawkEye 360; GPS; miniature CubeSats for education and research; and military/defense satellites.

Not visible in the next 10 days
Identifier
46338, 2020-062P
Orbit
Decayed
Country
Flag of USUS
Related business
Manufacturer
SpaceX/Seattle
Mission
Decayed Commercial Communications
Bus & Motor
STARLINK, Unknown motor
Mass
260 kg wet, ~248 kg dry
Launch date (UTC)
2020-09-03 (6 years ago)
Launch vehicle
FALCON 9
Launch site
Air Force Eastern Test Range (AFETR)
Object type
Payload
Rocket body
Debris
Shape & HBR
Box + 1 Pan, 10.1 m
Radar Cross Section
13.562 m², Large (>1 m²)

Expand to show TLE details & history
Last TLE update: 2 months ago

TLE from 2 months ago
0 STARLINK-1752
1 46338U 20062P   26087.83366274  .10079077  12468-4  61026-3 0  9990
2 46338  53.0198 227.3854 0008870 297.2611  62.7531 16.41328192308073
Epoch: 2026-03-28T20:00Z
TLE epoch observation values (Epoch: 2026-03-28T20:00:28.460Z)
Latitude
-0.0001°
Longitude
101.01851°
Altitude
160.547 km
Speed
7.813 km/s
True Right ascension
15h 09m 32s
True Declination
0° 00' 00"
Sunlit
Object was in full shadow at epoch
Visualization orbit readout
Latitude
Unknown
Longitude
Unknown
Altitude
Unknown
Speed
Unknown
Apparent Right ascension
Unknown
Apparent Declination
Unknown
Sunlit
N/A
Visualization observer readout
Local Sidereal Time
02:40:14
Azimuth
Unknown
Elevation
Unknown
Doppler factor
Unknown
Orbital elements
Apogee altitude
168.365 km
Perigee altitude
156.762 km
Semi-major axis
6,540.701 km
Eccentricity
0.00089
Inclination
53.0198°
RAAN
227.3854°
Arg. of periapsis
297.2611°
True anomaly
62.84351°
Mean anomaly
62.7531°
Eccentric anomaly
62.7983°
Mean motion
4.10305 °/min
Orbital period
87.74 mins
BSTAR
0.00061026
Loading maneuver chart data...
Computing Atmospheric mass density...

Documentation

Showing up to 5 results
|